Meteo Giornale » Osservazioni meteo Canada » Calgary-Springbank
ore: 15:00 - Osservazioni Meteo Calgary-Springbank
Lat. 51° 6' N Lon. 114° 22' W Alt. 1200 metri s.l.m.
20 °C
Sereno
Temp. 24 Ore
8 °C
20 °C
Sud/Sud-Est
16.7 Km/h
Dew point 7 °C
Umidità 42 %
Visibilità 14 Km
Il sole sorge alle ore 06:49
Il sole tramonta alle ore 20:25
| Data e Ora | Cielo e Fenomeni | T °C | DP °C | Um. % | Pres. hPa | Vis. km | Vento km/h | |
|---|---|---|---|---|---|---|---|---|
| Oggi h: 15:00 | Sereno | 20 | 7 | 42 | 1013 | 14 | S/SE 16.7 | |
| Oggi h: 14:00 | Sereno | 20 | 7 | 42 | 1014 | 14 | N 16.7 | |
| Oggi h: 13:00 | Sereno | 19 | 5 | 39 | 1015 | 14 | N 3.7 | |
| Oggi h: 12:00 | Sereno | 17 | 6 | 48 | 1015 | 14 | N 7.4 | |
| Oggi h: 11:00 | Sereno | 16 | 6 | 51 | 1015 | 14 | NO 7.4 | |
| Oggi h: 10:00 | Sereno | 15 | 8 | 62 | 1016 | 14 | N/NO 11.1 | |
| Oggi h: 09:00 | Sereno | 12 | 7 | 71 | 1016 | 14 | NO 11.1 | |
| Oggi h: 08:00 | Coperto | 9 | 7 | 87 | 1015 | 14 | NO 9.3 | |
| Oggi h: 07:00 | Molto Nuvoloso | 8 | 6 | 87 | 1015 | 14 | NO 11.1 | |
| Oggi h: 06:00 | Poco Nuvoloso | 8 | 6 | 87 | 1014 | 14 | N/NO 9.3 | |
| Oggi h: 05:00 | Coperto | 10 | 6 | 76 | 1014 | 14 | O/NO 9.3 | |
| Oggi h: 04:00 | Coperto | 11 | 6 | 71 | 1014 | 14 | NO 13 | |
| Oggi h: 03:00 | Coperto | 12 | 6 | 66 | 1014 | 14 | O/NO 18.5 | |
| Oggi h: 02:00 | Coperto | 10 | 7 | 81 | 1013 | 14 | NO 13 | |
| Oggi h: 01:49 | Coperto | 11 | 7 | 76 | 1013 | 14 | NO 13 | |
| Oggi h: 01:20 | Pioggia | 11 | 8 | 81 | 1013 | 14 | NO 13 | |
| Oggi h: 01:13 | Coperto | 11 | 7 | 76 | 1013 | 14 | NO 14.8 | |
| Oggi h: 01:00 | Pioggia | 11 | 7 | 76 | 1012 | 14 | O/NO 16.7 | |
| Oggi h: 00:42 | Pioggia | 11 | 7 | 76 | 1012 | 14 | NO 14.8 | |
| Oggi h: 00:39 | Coperto | 11 | 7 | 76 | 1012 | 14 | NO 16.7 | |
| Oggi h: 00:29 | Pioggia | 11 | 7 | 76 | 1012 | 14 | O/NO 14.8 | |
| Oggi h: 00:22 | Coperto | 12 | 7 | 71 | 1012 | 14 | O/NO 16.7 | |
| Oggi h: 00:08 | Pioggia | 11 | 8 | 81 | 1012 | 14 | O/NO 18.5 | |
| Oggi h: 00:00 | Coperto | 11 | 8 | 81 | 1012 | 14 | O/NO 14.8 | |
| Ieri h: 23:00 | Coperto | 12 | 7 | 71 | 1012 | 14 | O/NO 18.5 | |
| Ieri h: 22:00 | Coperto | 12 | 7 | 71 | 1012 | 14 | O/NO 20.3 | |
| Ieri h: 21:00 | Molto Nuvoloso | 12 | 6 | 66 | 1012 | 14 | O/NO 18.5 | |
| Ieri h: 20:00 | Nuvoloso | 13 | 7 | 66 | 1011 | 14 | O/NO 16.7 | |
| Ieri h: 19:18 | Coperto | 14 | 7 | 62 | 1011 | 14 | O/NO 18.5 | |
| Ieri h: 19:00 | Temporale nelle vicinanze | 14 | 10 | 76 | 1011 | 14 | NO 9.3 | |
| Ieri h: 18:51 | Temporale nelle vicinanze | 15 | 9 | 67 | 1011 | 14 | N/NO 13 | |
| Ieri h: 18:36 | Temporale | 15 | 8 | 62 | 1011 | 14 | N/NO 14.8 | |
| Ieri h: 18:25 | Temporale nelle vicinanze | 15 | 9 | 67 | 1010 | 14 | N/NO 16.7 | |
| Ieri h: 18:00 | Coperto | 15 | 9 | 67 | 1010 | 14 | NO 18.5 | |
| Ieri h: 17:00 | Molto Nuvoloso | 15 | 7 | 58 | 1010 | 14 | NO 25.9 | |



